| time (UTC) | temp C | wind direction | speed KPH | gust KPH | rain 1hr cm | rain 24hr cm | rain mn cm | humidity % | barometer mb |
| 20260507214042 | 19 | 62 | 6.4 | 6.4 | 0.00 | 0.00 | 0.00 | 33 | 1006.5 |
| 20260507213539 | 19 | 112 | 1.6 | 14.5 | 0.00 | 0.00 | 0.00 | 33 | 1006.3 |
| 20260507213036 | 18 | 281 | 6.4 | 11.3 | 0.00 | 0.00 | 0.00 | 34 | 1006.3 |
| 20260507212532 | 19 | 76 | 6.4 | 14.5 | 0.00 | 0.00 | 0.00 | 35 | 1006.2 |
| 20260507212029 | 20 | 42 | 4.8 | 6.4 | 0.00 | 0.00 | 0.00 | 35 | 1006.2 |
| 20260507211526 | 18 | 329 | 4.8 | 9.7 | 0.00 | 0.00 | 0.00 | 35 | 1006.2 |
| 20260507211022 | 18 | 332 | 3.2 | 11.3 | 0.00 | 0.00 | 0.00 | 34 | 1006.2 |
| 20260507210519 | 18 | 306 | 6.4 | 9.7 | 0.00 | 0.00 | 0.00 | 34 | 1006.3 |
| 20260507210016 | 18 | 319 | 3.2 | 6.4 | 0.00 | 0.00 | 0.00 | 34 | 1006.1 |
| 20260507205513 | 18 | 356 | 3.2 | 20.9 | 0.00 | 0.00 | 0.00 | 34 | 1006.2 |
| 20260507205009 | 18 | 261 | 3.2 | 17.7 | 0.00 | 0.00 | 0.00 | 36 | 1006.1 |
| 20260507204505 | 18 | 62 | 6.4 | 20.9 | 0.00 | 0.00 | 0.00 | 33 | 1006.3 |
| 20260507204003 | 19 | 339 | 6.4 | 11.3 | 0.00 | 0.00 | 0.00 | 33 | 1006.3 |
| 20260507203501 | 20 | 296 | 3.2 | 6.4 | 0.00 | 0.00 | 0.00 | 31 | 1006.1 |
| 20260507202957 | 20 | 246 | 9.7 | 14.5 | 0.00 | 0.00 | 0.00 | 32 | 1006.2 |
| 20260507202453 | 20 | 285 | 9.7 | 14.5 | 0.00 | 0.00 | 0.00 | 33 | 1006.6 |
| 20260507201949 | 20 | 274 | 3.2 | 14.5 | 0.00 | 0.00 | 0.00 | 32 | 1006.2 |
| 20260507201444 | 20 | 335 | 9.7 | 17.7 | 0.00 | 0.00 | 0.00 | 34 | 1006.6 |
| 20260507200941 | 20 | 331 | 6.4 | 16.1 | 0.00 | 0.00 | 0.00 | 32 | 1006.4 |
| 20260507200436 | 20 | 89 | 3.2 | 9.7 | 0.00 | 0.00 | 0.00 | 35 | 1006.2 |
| 20260507195933 | 20 | 312 | 3.2 | 11.3 | 0.00 | 0.00 | 0.00 | 33 | 1006.2 |
| 20260507195431 | 20 | 325 | 4.8 | 9.7 | 0.00 | 0.00 | 0.00 | 34 | 1006.4 |
| 20260507194928 | 20 | 354 | 3.2 | 12.9 | 0.00 | 0.00 | 0.00 | 33 | 1006.4 |
| 20260507194424 | 19 | 76 | 3.2 | 14.5 | 0.00 | 0.00 | 0.00 | 35 | 1006.4 |
| 20260507193920 | 19 | 77 | 6.4 | 14.5 | 0.00 | 0.00 | 0.00 | 34 | 1006.8 |
| 20260507193418 | 20 | 93 | 6.4 | 16.1 | 0.00 | 0.00 | 0.00 | 34 | 1006.5 |
| 20260507192914 | 18 | 225 | 3.2 | 4.8 | 0.00 | 0.00 | 0.00 | 34 | 1006.6 |
| 20260507192410 | 18 | 87 | 3.2 | 9.7 | 0.00 | 0.00 | 0.00 | 35 | 1006.5 |
| 20260507191907 | 20 | 191 | 3.2 | 12.9 | 0.00 | 0.00 | 0.00 | 34 | 1006.5 |
| 20260507191403 | 19 | 65 | 4.8 | 9.7 | 0.00 | 0.00 | 0.00 | 35 | 1006.6 |
| 20260507190859 | 19 | 198 | 3.2 | 12.9 | 0.00 | 0.00 | 0.00 | 34 | 1006.7 |
| 20260507190358 | 20 | 87 | 8.0 | 14.5 | 0.00 | 0.00 | 0.00 | 34 | 1006.7 |
| 20260507185856 | 19 | 83 | 9.7 | 14.5 | 0.00 | 0.00 | 0.00 | 37 | 1006.6 |
| 20260507185353 | 20 | 99 | 4.8 | 6.4 | 0.00 | 0.00 | 0.00 | 37 | 1006.4 |
| 20260507184850 | 20 | 70 | 3.2 | 11.3 | 0.00 | 0.00 | 0.00 | 34 | 1006.6 |
| 20260507184348 | 18 | 78 | 4.8 | 12.9 | 0.00 | 0.00 | 0.00 | 36 | 1006.7 |
| 20260507183844 | 19 | 70 | 1.6 | 4.8 | 0.00 | 0.00 | 0.00 | 39 | 1006.8 |
| 20260507183342 | 20 | 301 | 1.6 | 4.8 | 0.00 | 0.00 | 0.00 | 36 | 1006.9 |
| 20260507182839 | 20 | 101 | 8.0 | 20.9 | 0.00 | 0.00 | 0.00 | 34 | 1006.8 |
| 20260507182335 | 19 | 341 | 1.6 | 6.4 | 0.00 | 0.00 | 0.00 | 41 | 1006.5 |
| 20260507181831 | 19 | 335 | 4.8 | 6.4 | 0.00 | 0.00 | 0.00 | 33 | 1006.8 |
| 20260507181327 | 19 | 333 | 8.0 | 16.1 | 0.00 | 0.00 | 0.00 | 34 | 1006.8 |
| 20260507180824 | 20 | 150 | 6.4 | 16.1 | 0.00 | 0.00 | 0.00 | 34 | 1006.8 |
| 20260507180321 | 18 | 346 | 3.2 | 4.8 | 0.00 | 0.00 | 0.00 | 39 | 1006.8 |
| 20260507175817 | 18 | 89 | 8.0 | 11.3 | 0.00 | 0.00 | 0.00 | 37 | 1006.9 |
| 20260507175314 | 19 | 187 | 4.8 | 11.3 | 0.00 | 0.00 | 0.00 | 37 | 1007.1 |
| 20260507174811 | 19 | 350 | 3.2 | 9.7 | 0.00 | 0.00 | 0.00 | 40 | 1007.2 |
| 20260507174309 | 20 | 243 | 3.2 | 6.4 | 0.00 | 0.00 | 0.00 | 37 | 1007.2 |
| 20260507173806 | 20 | 317 | 6.4 | 6.4 | 0.00 | 0.00 | 0.00 | 35 | 1007.3 |
| 20260507173303 | 18 | 39 | 3.2 | 4.8 | 0.00 | 0.00 | 0.00 | 37 | 1007.4 |
| 20260507172759 | 19 | 108 | 9.7 | 17.7 | 0.00 | 0.00 | 0.00 | 33 | 1007.1 |
| 20260507172256 | 18 | 66 | 6.4 | 9.7 | 0.00 | 0.00 | 0.00 | 38 | 1007.4 |
| 20260507171752 | 18 | 3 | 4.8 | 9.7 | 0.00 | 0.00 | 0.00 | 37 | 1007.7 |
| 20260507171249 | 18 | 294 | 6.4 | 12.9 | 0.00 | 0.00 | 0.00 | 34 | 1007.5 |
| 20260507170746 | 18 | 339 | 4.8 | 11.3 | 0.00 | 0.00 | 0.00 | 37 | 1007.6 |
| 20260507170243 | 18 | 106 | 6.4 | 9.7 | 0.00 | 0.00 | 0.00 | 35 | 1008.0 |
| 20260507165738 | 18 | 295 | 6.4 | 12.9 | 0.00 | 0.00 | 0.00 | 37 | 1008.1 |
| 20260507165235 | 18 | 78 | 3.2 | 12.9 | 0.00 | 0.00 | 0.00 | 38 | 1008.0 |
| 20260507164731 | 18 | 82 | 1.6 | 6.4 | 0.00 | 0.00 | 0.00 | 39 | 1008.2 |
| 20260507164228 | 17 | 248 | 3.2 | 11.3 | 0.00 | 0.00 | 0.00 | 42 | 1008.1 |
| 20260507163725 | 17 | 308 | 6.4 | 9.7 | 0.00 | 0.00 | 0.00 | 40 | 1008.2 |
| 20260507163223 | 17 | 260 | 3.2 | 17.7 | 0.00 | 0.00 | 0.00 | 45 | 1008.6 |
| 20260507162719 | 17 | 342 | 4.8 | 6.4 | 0.00 | 0.00 | 0.00 | 44 | 1008.4 |
| 20260507162215 | 17 | 68 | 1.6 | 9.7 | 0.00 | 0.00 | 0.00 | 43 | 1008.4 |
| 20260507161711 | 16 | 70 | 3.2 | 6.4 | 0.00 | 0.00 | 0.00 | 44 | 1008.4 |
| 20260507161208 | 16 | 340 | 3.2 | 4.8 | 0.00 | 0.00 | 0.00 | 44 | 1008.6 |
| 20260507160704 | 17 | 20 | 0.0 | 4.8 | 0.00 | 0.00 | 0.00 | 48 | 1008.7 |
| 20260507160201 | 17 | 305 | 3.2 | 4.8 | 0.00 | 0.00 | 0.00 | 47 | 1008.6 |
| 20260507155656 | 16 | 299 | 3.2 | 6.4 | 0.00 | 0.00 | 0.00 | 46 | 1008.9 |
| 20260507155153 | 16 | 74 | 1.6 | 3.2 | 0.00 | 0.00 | 0.00 | 51 | 1008.9 |
| 20260507154649 | 15 | 83 | 1.6 | 9.7 | 0.00 | 0.00 | 0.00 | 49 | 1009.0 |
| 20260507154148 | 16 | 85 | 1.6 | 9.7 | 0.00 | 0.00 | 0.00 | 51 | 1009.1 |
| 20260507153644 | 16 | 323 | 6.4 | 11.3 | 0.00 | 0.00 | 0.00 | 50 | 1009.2 |
| 20260507153140 | 16 | 89 | 4.8 | 16.1 | 0.00 | 0.00 | 0.00 | 48 | 1009.4 |
| 20260507152637 | 16 | 242 | 4.8 | 12.9 | 0.00 | 0.00 | 0.00 | 51 | 1009.2 |
| 20260507152132 | 15 | 251 | 3.2 | 6.4 | 0.00 | 0.00 | 0.00 | 46 | 1009.2 |
| 20260507151629 | 15 | 239 | 0.0 | 4.8 | 0.00 | 0.00 | 0.00 | 46 | 1009.4 |
| 20260507151126 | 15 | 281 | 6.4 | 9.7 | 0.00 | 0.00 | 0.00 | 49 | 1009.6 |
| 20260507150623 | 16 | 304 | 1.6 | 9.7 | 0.00 | 0.00 | 0.00 | 46 | 1009.8 |
| 20260507150120 | 16 | 269 | 1.6 | 1.6 | 0.00 | 0.00 | 0.00 | 50 | 1009.4 |
| 20260507145615 | 16 | 320 | 1.6 | 4.8 | 0.00 | 0.00 | 0.00 | 50 | 1009.8 |
| 20260507145113 | 15 | 222 | 1.6 | 3.2 | 0.00 | 0.00 | 0.00 | 49 | 1010.2 |
| 20260507144613 | 15 | 186 | 1.6 | 6.4 | 0.00 | 0.00 | 0.00 | 48 | 1010.1 |
| 20260507144112 | 14 | 233 | 0.0 | 1.6 | 0.00 | 0.00 | 0.00 | 52 | 1010.2 |
| 20260507143608 | 13 | 323 | 0.0 | 4.8 | 0.00 | 0.00 | 0.00 | 56 | 1010.4 |
| 20260507143106 | 13 | 114 | 0.0 | 4.8 | 0.00 | 0.00 | 0.00 | 56 | 1010.6 |
| 20260507142601 | 12 | 79 | 3.2 | 9.7 | 0.00 | 0.00 | 0.00 | 54 | 1010.5 |
| 20260507142058 | 13 | 98 | 3.2 | 9.7 | 0.00 | 0.00 | 0.00 | 53 | 1010.5 |
| 20260507141554 | 13 | 90 | 6.4 | 6.4 | 0.00 | 0.00 | 0.00 | 54 | 1010.6 |
| 20260507141051 | 13 | 128 | 3.2 | 4.8 | 0.00 | 0.00 | 0.00 | 51 | 1010.9 |
| 20260507140548 | 13 | 40 | 1.6 | 1.6 | 0.00 | 0.00 | 0.00 | 51 | 1010.7 |
| 20260507140045 | 12 | 297 | 3.2 | 3.2 | 0.00 | 0.00 | 0.00 | 57 | 1011.2 |
| 20260507135542 | 12 | 248 | 1.6 | 1.6 | 0.00 | 0.00 | 0.00 | 55 | 1011.0 |
| 20260507135039 | 11 | 95 | 0.0 | 0.0 | 0.00 | 0.00 | 0.00 | 57 | 1011.3 |
| 20260507134536 | 11 | 88 | 1.6 | 3.2 | 0.00 | 0.00 | 0.00 | 56 | 1011.0 |
| 20260507134031 | 11 | 320 | 1.6 | 3.2 | 0.00 | 0.00 | 0.00 | 56 | 1011.1 |
| 20260507133528 | 12 | 71 | 3.2 | 4.8 | 0.00 | 0.00 | 0.00 | 58 | 1011.3 |
| 20260507133026 | 12 | 70 | 1.6 | 1.6 | 0.00 | 0.00 | 0.00 | 60 | 1011.1 |
| 20260507132523 | 12 | 16 | 0.0 | 1.6 | 0.00 | 0.00 | 0.00 | 59 | 1011.2 |
| 20260507132019 | 11 | 80 | 1.6 | 1.6 | 0.00 | 0.00 | 0.00 | 61 | 1011.3 |
| 20260507131516 | 11 | 0 | 0.0 | 1.6 | 0.00 | 0.00 | 0.00 | 62 | 1011.4 |
| 20260507131013 | 11 | 326 | 1.6 | 3.2 | 0.00 | 0.00 | 0.00 | 64 | 1011.4 |
| 20260507130510 | 11 | 323 | 0.0 | 3.2 | 0.00 | 0.00 | 0.00 | 66 | 1011.7 |
| 20260507130008 | 11 | 80 | 0.0 | 0.0 | 0.00 | 0.00 | 0.00 | 66 | 1011.7 |
| 20260507125506 | 11 | 79 | 0.0 | 1.6 | 0.00 | 0.00 | 0.00 | 63 | 1011.8 |
| 20260507125003 | 11 | 75 | 0.0 | 1.6 | 0.00 | 0.00 | 0.00 | 67 | 1011.6 |
| 20260507124459 | 11 | 358 | 0.0 | 0.0 | 0.00 | 0.00 | 0.00 | 66 | 1011.7 |
| 20260507123957 | 11 | 73 | 0.0 | 1.6 | 0.00 | 0.00 | 0.00 | 67 | 1011.7 |
| 20260507123455 | 11 | 77 | 0.0 | 3.2 | 0.00 | 0.00 | 0.00 | 66 | 1011.7 |
| 20260507122951 | 11 | 327 | 1.6 | 1.6 | 0.00 | 0.00 | 0.00 | 65 | 1011.5 |
| 20260507122446 | 10 | 319 | 0.0 | 1.6 | 0.00 | 0.00 | 0.00 | 71 | 1011.9 |
| 20260507121943 | 10 | 294 | 0.0 | 1.6 | 0.00 | 0.00 | 0.00 | 71 | 1011.4 |
| 20260507121438 | 10 | 299 | 0.0 | 0.0 | 0.00 | 0.00 | 0.00 | 70 | 1011.6 |
| 20260507120935 | 10 | 290 | 0.0 | 0.0 | 0.00 | 0.00 | 0.00 | 72 | 1011.4 |
| 20260507120431 | 10 | 254 | 0.0 | 0.0 | 0.00 | 0.00 | 0.00 | 71 | 1011.6 |
| 20260507115928 | 10 | 296 | 1.6 | 1.6 | 0.00 | 0.00 | 0.00 | 76 | 1011.6 |
| 20260507115424 | 10 | 308 | 0.0 | 0.0 | 0.00 | 0.00 | 0.00 | 74 | 1011.5 |
| 20260507114920 | 10 | 315 | 0.0 | 1.6 | 0.00 | 0.00 | 0.00 | 76 | 1011.0 |
| 20260507114417 | 10 | 291 | 0.0 | 0.0 | 0.00 | 0.00 | 0.00 | 75 | 1011.5 |
| 20260507113914 | 10 | 323 | 0.0 | 0.0 | 0.00 | 0.00 | 0.00 | 77 | 1011.4 |
| 20260507113411 | 10 | 325 | 0.0 | 0.0 | 0.00 | 0.00 | 0.00 | 80 | 1011.2 |
| 20260507112908 | 10 | 326 | 0.0 | 0.0 | 0.00 | 0.00 | 0.00 | 79 | 1011.3 |
| 20260507112405 | 10 | 30 | 0.0 | 1.6 | 0.00 | 0.00 | 0.00 | 79 | 1011.3 |
| 20260507111904 | 10 | 9 | 0.0 | 0.0 | 0.00 | 0.00 | 0.00 | 77 | 1011.2 |
| 20260507111359 | 10 | 344 | 0.0 | 0.0 | 0.00 | 0.00 | 0.00 | 79 | 1011.2 |
| 20260507110855 | 10 | 345 | 0.0 | 0.0 | 0.00 | 0.00 | 0.00 | 77 | 1011.3 |
| 20260507110352 | 10 | 343 | 0.0 | 0.0 | 0.00 | 0.00 | 0.00 | 83 | 1011.0 |
| 20260507105849 | 10 | 339 | 0.0 | 0.0 | 0.00 | 0.00 | 0.00 | 83 | 1010.9 |
| 20260507105345 | 10 | 84 | 0.0 | 0.0 | 0.00 | 0.00 | 0.00 | 82 | 1010.8 |
| 20260507104842 | 10 | 84 | 0.0 | 1.6 | 0.00 | 0.00 | 0.00 | 83 | 1010.9 |
| 20260507104339 | 10 | 83 | 1.6 | 3.2 | 0.00 | 0.00 | 0.00 | 85 | 1010.6 |
| 20260507103835 | 10 | 82 | 0.0 | 0.0 | 0.00 | 0.00 | 0.00 | 83 | 1010.5 |
| 20260507103332 | 10 | 82 | 0.0 | 1.6 | 0.00 | 0.00 | 0.00 | 82 | 1010.7 |
| 20260507102828 | 10 | 82 | 0.0 | 1.6 | 0.00 | 0.00 | 0.00 | 79 | 1010.4 |
| 20260507102325 | 10 | 45 | 0.0 | 0.0 | 0.00 | 0.00 | 0.00 | 79 | 1010.5 |
| 20260507101822 | 10 | 34 | 0.0 | 0.0 | 0.00 | 0.00 | 0.00 | 79 | 1010.3 |
| 20260507101321 | 10 | 56 | 0.0 | 3.2 | 0.00 | 0.00 | 0.00 | 79 | 1010.2 |
| 20260507100819 | 10 | 73 | 1.6 | 3.2 | 0.00 | 0.00 | 0.00 | 80 | 1009.7 |
| 20260507100317 | 10 | 78 | 1.6 | 3.2 | 0.00 | 0.00 | 0.00 | 81 | 1010.2 |
| 20260507095815 | 11 | 101 | 1.6 | 3.2 | 0.00 | 0.00 | 0.00 | 79 | 1010.1 |
| 20260507095311 | 10 | 66 | 0.0 | 1.6 | 0.00 | 0.00 | 0.00 | 82 | 1010.2 |
| 20260507094808 | 10 | 86 | 1.6 | 3.2 | 0.00 | 0.00 | 0.00 | 85 | 1010.3 |
| 20260507094305 | 10 | 84 | 0.0 | 0.0 | 0.00 | 0.00 | 0.00 | 89 | 1010.4 |
| 20260507093802 | 11 | 84 | 0.0 | 1.6 | 0.00 | 0.00 | 0.00 | 90 | 1010.3 |
| 20260507093300 | 11 | 84 | 0.0 | 0.0 | 0.00 | 0.00 | 0.00 | 90 | 1010.2 |
| 20260507092758 | 11 | 84 | 0.0 | 0.0 | 0.00 | 0.00 | 0.00 | 89 | 1010.4 |
| 20260507092254 | 11 | 84 | 0.0 | 0.0 | 0.00 | 0.00 | 0.00 | 88 | 1009.9 |
| 20260507091750 | 11 | 84 | 0.0 | 0.0 | 0.00 | 0.00 | 0.00 | 86 | 1009.9 |
| 20260507091247 | 11 | 84 | 0.0 | 0.0 | 0.00 | 0.00 | 0.00 | 88 | 1010.1 |
| 20260507090747 | 11 | 84 | 0.0 | 0.0 | 0.00 | 0.00 | 0.00 | 88 | 1009.9 |
| 20260507090244 | 11 | 84 | 0.0 | 0.0 | 0.00 | 0.00 | 0.00 | 88 | 1010.1 |
| 20260507085741 | 10 | 84 | 0.0 | 1.6 | 0.00 | 0.00 | 0.00 | 87 | 1010.1 |
| 20260507085238 | 10 | 80 | 0.0 | 0.0 | 0.00 | 0.00 | 0.00 | 91 | 1010.1 |
| 20260507084735 | 10 | 79 | 1.6 | 1.6 | 0.00 | 0.00 | 0.00 | 91 | 1010.4 |
| 20260507084231 | 11 | 69 | 0.0 | 1.6 | 0.00 | 0.00 | 0.00 | 89 | 1010.1 |
| 20260507083729 | 10 | 89 | 0.0 | 1.6 | 0.00 | 0.00 | 0.00 | 89 | 1010.2 |
| 20260507083225 | 10 | 302 | 0.0 | 0.0 | 0.00 | 0.00 | 0.00 | 91 | 1010.2 |
| 20260507082722 | 10 | 45 | 0.0 | 0.0 | 0.00 | 0.00 | 0.00 | 91 | 1009.9 |
| 20260507082217 | 10 | 45 | 0.0 | 0.0 | 0.00 | 0.00 | 0.00 | 91 | 1009.8 |
| 20260507081715 | 10 | 262 | 0.0 | 0.0 | 0.00 | 0.00 | 0.00 | 91 | 1010.1 |
| 20260507081211 | 10 | 305 | 0.0 | 0.0 | 0.00 | 0.00 | 0.00 | 91 | 1009.9 |
| 20260507080707 | 10 | 305 | 0.0 | 0.0 | 0.00 | 0.00 | 0.00 | 91 | 1009.9 |
| 20260507080204 | 10 | 305 | 0.0 | 0.0 | 0.00 | 0.00 | 0.00 | 91 | 1009.6 |
| 20260507075659 | 10 | 296 | 1.6 | 1.6 | 0.00 | 0.00 | 0.00 | 91 | 1009.8 |
| 20260507075155 | 10 | 278 | 0.0 | 0.0 | 0.00 | 0.00 | 0.00 | 91 | 1009.9 |
| 20260507074652 | 10 | 292 | 0.0 | 0.0 | 0.00 | 0.00 | 0.00 | 91 | 1009.9 |
| 20260507074150 | 10 | 249 | 0.0 | 1.6 | 0.00 | 0.00 | 0.00 | 91 | 1009.8 |
| 20260507073647 | 10 | 292 | 0.0 | 1.6 | 0.00 | 0.00 | 0.00 | 91 | 1009.8 |
| 20260507073142 | 10 | 27 | 0.0 | 0.0 | 0.00 | 0.00 | 0.00 | 91 | 1009.3 |
| 20260507072641 | 10 | 27 | 0.0 | 0.0 | 0.00 | 0.00 | 0.00 | 91 | 1009.6 |
| 20260507072138 | 11 | 30 | 0.0 | 1.6 | 0.00 | 0.00 | 0.00 | 91 | 1009.8 |
| 20260507071635 | 11 | 299 | 0.0 | 1.6 | 0.00 | 0.00 | 0.00 | 91 | 1009.9 |
| 20260507071132 | 11 | 327 | 0.0 | 0.0 | 0.00 | 0.00 | 0.00 | 90 | 1009.5 |
| 20260507070629 | 11 | 308 | 0.0 | 0.0 | 0.00 | 0.00 | 0.00 | 90 | 1009.6 |
| 20260507070126 | 11 | 307 | 0.0 | 0.0 | 0.00 | 0.00 | 0.00 | 90 | 1009.7 |
| 20260507065622 | 11 | 307 | 0.0 | 0.0 | 0.00 | 0.00 | 0.00 | 89 | 1009.8 |
| 20260507065119 | 11 | 307 | 0.0 | 0.0 | 0.00 | 0.00 | 0.00 | 88 | 1009.8 |
| 20260507064617 | 11 | 307 | 0.0 | 0.0 | 0.00 | 0.00 | 0.00 | 88 | 1009.6 |
| 20260507064115 | 11 | 307 | 0.0 | 0.0 | 0.00 | 0.00 | 0.00 | 89 | 1009.8 |
| 20260507063612 | 11 | 307 | 0.0 | 0.0 | 0.00 | 0.00 | 0.00 | 89 | 1009.9 |
| 20260507063109 | 11 | 307 | 0.0 | 0.0 | 0.00 | 0.00 | 0.00 | 89 | 1010.1 |
| 20260507062606 | 11 | 307 | 0.0 | 0.0 | 0.00 | 0.00 | 0.00 | 90 | 1010.3 |
| 20260507062103 | 11 | 307 | 0.0 | 0.0 | 0.00 | 0.00 | 0.00 | 89 | 1010.2 |
| 20260507061601 | 11 | 307 | 0.0 | 1.6 | 0.00 | 0.00 | 0.00 | 89 | 1010.1 |
| 20260507061059 | 11 | 301 | 1.6 | 1.6 | 0.00 | 0.00 | 0.00 | 89 | 1010.1 |
| 20260507060557 | 11 | 289 | 0.0 | 1.6 | 0.00 | 0.00 | 0.00 | 87 | 1010.3 |
| 20260507060053 | 11 | 292 | 0.0 | 1.6 | 0.00 | 0.00 | 0.00 | 87 | 1010.3 |
| 20260507055548 | 11 | 300 | 0.0 | 1.6 | 0.00 | 0.00 | 0.00 | 85 | 1010.4 |
| 20260507055045 | 11 | 215 | 0.0 | 0.0 | 0.00 | 0.00 | 0.00 | 83 | 1010.3 |
| 20260507054541 | 11 | 284 | 0.0 | 0.0 | 0.00 | 0.00 | 0.00 | 87 | 1010.4 |
| 20260507054038 | 11 | 303 | 0.0 | 0.0 | 0.00 | 0.00 | 0.00 | 87 | 1010.5 |
| 20260507053536 | 11 | 303 | 0.0 | 1.6 | 0.00 | 0.00 | 0.00 | 86 | 1010.4 |
| 20260507053034 | 11 | 302 | 0.0 | 1.6 | 0.00 | 0.00 | 0.00 | 86 | 1010.5 |
| 20260507052531 | 11 | 310 | 0.0 | 0.0 | 0.00 | 0.00 | 0.00 | 85 | 1010.5 |
| 20260507052028 | 11 | 71 | 0.0 | 0.0 | 0.00 | 0.00 | 0.00 | 81 | 1010.5 |
| 20260507051526 | 11 | 71 | 0.0 | 1.6 | 0.00 | 0.00 | 0.00 | 81 | 1010.3 |
| 20260507051023 | 11 | 63 | 1.6 | 1.6 | 0.00 | 0.00 | 0.00 | 81 | 1010.4 |
| 20260507050519 | 11 | 10 | 0.0 | 1.6 | 0.00 | 0.00 | 0.00 | 81 | 1010.4 |
| 20260507050015 | 11 | 357 | 0.0 | 1.6 | 0.00 | 0.00 | 0.00 | 82 | 1010.3 |
| 20260507045512 | 11 | 72 | 3.2 | 4.8 | 0.00 | 0.00 | 0.00 | 81 | 1010.5 |
| 20260507045010 | 11 | 109 | 0.0 | 3.2 | 0.00 | 0.00 | 0.00 | 82 | 1010.3 |
| 20260507044506 | 11 | 81 | 3.2 | 4.8 | 0.00 | 0.00 | 0.00 | 81 | 1009.9 |
| 20260507044003 | 11 | 82 | 1.6 | 3.2 | 0.00 | 0.00 | 0.00 | 82 | 1010.1 |
| 20260507043459 | 11 | 305 | 0.0 | 1.6 | 0.00 | 0.00 | 0.00 | 84 | 1010.1 |
| 20260507042955 | 11 | 74 | 1.6 | 3.2 | 0.00 | 0.00 | 0.00 | 85 | 1010.3 |
| 20260507042452 | 12 | 96 | 0.0 | 0.0 | 0.00 | 0.00 | 0.00 | 87 | 1010.1 |
| 20260507041947 | 12 | 74 | 1.6 | 3.2 | 0.00 | 0.00 | 0.00 | 86 | 1010.2 |
| 20260507041445 | 12 | 273 | 0.0 | 0.0 | 0.00 | 0.00 | 0.00 | 85 | 1010.6 |
| 20260507040942 | 12 | 346 | 0.0 | 0.0 | 0.00 | 0.00 | 0.00 | 85 | 1010.4 |
| 20260507040437 | 12 | 86 | 3.2 | 4.8 | 0.00 | 0.00 | 0.00 | 85 | 1010.3 |
| 20260507035933 | 12 | 100 | 4.8 | 6.4 | 0.00 | 0.28 | 0.28 | 85 | 1010.2 |
| 20260507035430 | 12 | 271 | 3.2 | 4.8 | 0.00 | 0.28 | 0.28 | 85 | 1010.5 |
| 20260507034927 | 12 | 70 | 3.2 | 4.8 | 0.00 | 0.28 | 0.28 | 87 | 1010.2 |
| 20260507034424 | 12 | 357 | 0.0 | 1.6 | 0.00 | 0.28 | 0.28 | 86 | 1009.9 |
| 20260507033922 | 12 | 307 | 1.6 | 1.6 | 0.00 | 0.28 | 0.28 | 85 | 1009.6 |
| 20260507033420 | 12 | 305 | 0.0 | 1.6 | 0.00 | 0.28 | 0.28 | 85 | 1010.2 |
| 20260507032916 | 12 | 293 | 1.6 | 1.6 | 0.00 | 0.28 | 0.28 | 86 | 1010.5 |
| 20260507032413 | 12 | 320 | 1.6 | 1.6 | 0.00 | 0.28 | 0.28 | 88 | 1010.6 |
| 20260507031909 | 12 | 80 | 1.6 | 4.8 | 0.00 | 0.28 | 0.28 | 88 | 1010.3 |
| 20260507031406 | 12 | 236 | 0.0 | 0.0 | 0.00 | 0.28 | 0.28 | 87 | 1009.7 |
| 20260507030903 | 12 | 235 | 0.0 | 3.2 | 0.00 | 0.28 | 0.28 | 85 | 1009.6 |
| 20260507030400 | 12 | 314 | 1.6 | 3.2 | 0.00 | 0.28 | 0.28 | 85 | 1010.1 |
| 20260507025857 | 12 | 89 | 1.6 | 6.4 | 0.00 | 0.28 | 0.28 | 84 | 1010.1 |
| 20260507025354 | 12 | 63 | 3.2 | 3.2 | 0.00 | 0.28 | 0.28 | 83 | 1010.2 |
| 20260507024852 | 12 | 317 | 3.2 | 4.8 | 0.00 | 0.28 | 0.28 | 83 | 1010.2 |
| 20260507024349 | 12 | 113 | 1.6 | 3.2 | 0.00 | 0.28 | 0.28 | 84 | 1010.4 |
| 20260507023845 | 13 | 73 | 3.2 | 4.8 | 0.00 | 0.28 | 0.28 | 84 | 1009.9 |
| 20260507023342 | 13 | 79 | 3.2 | 6.4 | 0.00 | 0.28 | 0.28 | 84 | 1009.7 |
| 20260507022839 | 13 | 32 | 3.2 | 6.4 | 0.00 | 0.28 | 0.28 | 83 | 1010.1 |
| 20260507022335 | 13 | 105 | 3.2 | 4.8 | 0.00 | 0.28 | 0.28 | 83 | 1009.7 |
| 20260507021831 | 13 | 91 | 1.6 | 4.8 | 0.00 | 0.28 | 0.28 | 83 | 1009.7 |
| 20260507021327 | 13 | 346 | 0.0 | 1.6 | 0.00 | 0.28 | 0.28 | 83 | 1009.5 |
| 20260507020825 | 13 | 6 | 0.0 | 1.6 | 0.00 | 0.28 | 0.28 | 83 | 1009.3 |
| 20260507020321 | 13 | 87 | 1.6 | 3.2 | 0.00 | 0.28 | 0.28 | 82 | 1009.4 |
| 20260507015819 | 13 | 86 | 4.8 | 4.8 | 0.00 | 0.28 | 0.28 | 82 | 1009.3 |
| 20260507015316 | 13 | 76 | 3.2 | 4.8 | 0.00 | 0.28 | 0.28 | 82 | 1009.0 |
| 20260507014813 | 13 | 210 | 0.0 | 4.8 | 0.00 | 0.28 | 0.28 | 82 | 1009.1 |
| 20260507014310 | 13 | 91 | 3.2 | 3.2 | 0.00 | 0.28 | 0.28 | 82 | 1009.1 |
| 20260507013806 | 13 | 67 | 3.2 | 6.4 | 0.00 | 0.28 | 0.28 | 82 | 1009.5 |
| 20260507013303 | 13 | 72 | 4.8 | 4.8 | 0.00 | 0.28 | 0.28 | 82 | 1009.2 |
| 20260507012801 | 13 | 75 | 3.2 | 3.2 | 0.00 | 0.28 | 0.28 | 82 | 1009.0 |
| 20260507012256 | 13 | 84 | 0.0 | 1.6 | 0.00 | 0.28 | 0.28 | 83 | 1009.0 |
| 20260507011754 | 13 | 68 | 4.8 | 6.4 | 0.00 | 0.28 | 0.28 | 82 | 1009.0 |
| 20260507011250 | 13 | 93 | 1.6 | 3.2 | 0.00 | 0.28 | 0.28 | 82 | 1009.0 |
| 20260507010750 | 13 | 100 | 0.0 | 3.2 | 0.00 | 0.28 | 0.28 | 82 | 1009.0 |
| 20260507010246 | 13 | 71 | 3.2 | 3.2 | 0.00 | 0.28 | 0.28 | 81 | 1008.9 |
| 20260507005744 | 13 | 326 | 0.0 | 3.2 | 0.00 | 0.28 | 0.28 | 83 | 1009.1 |
| 20260507005240 | 14 | 75 | 0.0 | 1.6 | 0.00 | 0.28 | 0.28 | 82 | 1008.8 |
| 20260507004736 | 14 | 73 | 0.0 | 1.6 | 0.00 | 0.28 | 0.28 | 81 | 1008.4 |
| 20260507004235 | 14 | 241 | 1.6 | 3.2 | 0.00 | 0.28 | 0.28 | 82 | 1008.4 |
| 20260507003730 | 14 | 66 | 1.6 | 4.8 | 0.00 | 0.28 | 0.28 | 81 | 1008.8 |
| 20260507003225 | 14 | 71 | 1.6 | 3.2 | 0.00 | 0.28 | 0.28 | 82 | 1008.9 |
| 20260507002722 | 14 | 286 | 1.6 | 3.2 | 0.00 | 0.28 | 0.28 | 81 | 1008.9 |
| 20260507002218 | 14 | 316 | 1.6 | 1.6 | 0.00 | 0.28 | 0.28 | 81 | 1009.2 |
| 20260507001715 | 14 | 62 | 0.0 | 1.6 | 0.00 | 0.28 | 0.28 | 81 | 1009.1 |
| 20260507001212 | 14 | 276 | 0.0 | 0.0 | 0.00 | 0.28 | 0.28 | 80 | 1009.0 |
| 20260507000708 | 14 | 53 | 0.0 | 4.8 | 0.00 | 0.28 | 0.28 | 80 | 1008.9 |
| 20260507000205 | 15 | 67 | 1.6 | 3.2 | 0.00 | 0.28 | 0.28 | 80 | 1008.9 |
| 20260506235701 | 15 | 12 | 0.0 | 4.8 | 0.00 | 0.28 | 0.28 | 80 | 1008.9 |
| 20260506235157 | 15 | 195 | 0.0 | 1.6 | 0.00 | 0.28 | 0.28 | 79 | 1008.8 |
| 20260506234654 | 15 | 72 | 3.2 | 3.2 | 0.00 | 0.28 | 0.28 | 80 | 1008.7 |
| 20260506234151 | 15 | 75 | 1.6 | 4.8 | 0.00 | 0.28 | 0.28 | 80 | 1008.5 |
| 20260506233648 | 15 | 75 | 3.2 | 3.2 | 0.00 | 0.28 | 0.28 | 80 | 1008.3 |
| 20260506233145 | 15 | 81 | 0.0 | 4.8 | 0.00 | 0.28 | 0.28 | 80 | 1008.6 |
| 20260506232641 | 15 | 82 | 0.0 | 0.0 | 0.00 | 0.28 | 0.28 | 80 | 1008.7 |
| 20260506232137 | 15 | 82 | 1.6 | 3.2 | 0.00 | 0.28 | 0.28 | 79 | 1008.5 |
| 20260506231634 | 16 | 75 | 0.0 | 3.2 | 0.00 | 0.28 | 0.28 | 81 | 1008.2 |
| 20260506231132 | 16 | 47 | 3.2 | 3.2 | 0.00 | 0.28 | 0.28 | 79 | 1008.1 |
| 20260506230629 | 16 | 263 | 0.0 | 0.0 | 0.00 | 0.28 | 0.28 | 80 | 1008.1 |
| 20260506230126 | 16 | 262 | 0.0 | 1.6 | 0.00 | 0.28 | 0.28 | 81 | 1007.9 |
| 20260506225622 | 16 | 320 | 1.6 | 3.2 | 0.00 | 0.28 | 0.28 | 80 | 1007.5 |
| 20260506225119 | 16 | 217 | 1.6 | 4.8 | 0.00 | 0.28 | 0.28 | 78 | 1007.8 |
| 20260506224616 | 16 | 329 | 0.0 | 1.6 | 0.00 | 0.28 | 0.28 | 79 | 1007.8 |
| 20260506224112 | 16 | 257 | 3.2 | 6.4 | 0.00 | 0.28 | 0.28 | 78 | 1007.6 |
| 20260506223608 | 16 | 251 | 0.0 | 4.8 | 0.00 | 0.28 | 0.28 | 78 | 1007.7 |
| 20260506223104 | 16 | 213 | 0.0 | 0.0 | 0.00 | 0.28 | 0.28 | 78 | 1007.7 |
| 20260506222602 | 16 | 327 | 3.2 | 4.8 | 0.00 | 0.28 | 0.28 | 79 | 1007.8 |
| 20260506222058 | 17 | 87 | 1.6 | 3.2 | 0.00 | 0.28 | 0.28 | 79 | 1007.6 |
| 20260506221556 | 17 | 3 | 0.0 | 3.2 | 0.00 | 0.28 | 0.28 | 77 | 1007.4 |
| 20260506221054 | 17 | 344 | 4.8 | 6.4 | 0.00 | 0.28 | 0.28 | 77 | 1007.4 |
| 20260506220549 | 16 | 214 | 1.6 | 9.7 | 0.00 | 0.28 | 0.28 | 78 | 1007.4 |
| 20260506220045 | 17 | 155 | 0.0 | 9.7 | 0.00 | 0.28 | 0.28 | 78 | 1007.1 |
| 20260506215542 | 17 | 96 | 0.0 | 3.2 | 0.00 | 0.28 | 0.28 | 80 | 1007.2 |
| 20260506215038 | 17 | 51 | 3.2 | 11.3 | 0.00 | 0.28 | 0.28 | 79 | 1007.4 |
| 20260506214535 | 17 | 27 | 1.6 | 6.4 | 0.00 | 0.28 | 0.28 | 81 | 1007.1 |